Location: Fort Worth, Tx
(32.7431°N, 97.3695°W)
Time: 13:51:44
(UTC-05:00)

Transit 2A - Visible Passes

Search period start: 22 February 2024 00:00
Search period end: 03 March 2024 00:00
Orbit: 600 x 953 km, 66.7° (Epoch: 22 February)

Date Brightness Start Highest point End Pass type
(mag) Time Alt. Az. Time Alt. Az. Time Alt. Az.
22 Feb 6.6 06:52:05 10° NNW 06:57:01 58° ENE 07:02:28 10° SE visible
22 Feb 6.4 21:28:00 10° SW 21:31:22 46° WSW 21:31:22 46° WSW visible
23 Feb 7.4 06:17:21 10° N 06:21:59 37° ENE 06:27:02 10° SE visible
23 Feb 5.3 20:52:57 10° SSW 20:57:24 79° ESE 20:58:47 43° NE visible
24 Feb 8.1 05:42:48 10° N 05:46:53 24° ENE 05:51:15 10° ESE visible
24 Feb 6.6 07:25:19 10° NW 07:29:58 36° WSW 07:35:03 10° S visible
24 Feb 5.8 20:18:13 10° S 20:22:28 44° ESE 20:26:11 12° NE visible
24 Feb 8.3 22:03:25 10° W 22:05:42 14° NW 22:06:43 13° NW visible
25 Feb 8.5 05:09:23 12° NNE 05:11:43 16° NE 05:15:00 10° E visible
25 Feb 6.1 06:50:02 10° NW 06:55:01 57° WSW 07:00:31 10° S visible
25 Feb 6.6 19:43:51 10° SSE 19:47:34 26° ESE 19:51:10 10° NE visible
25 Feb 7.9 21:27:06 10° WSW 21:30:31 22° WNW 21:33:55 10° N visible
26 Feb 8.9 04:36:23 10° NE 04:36:28 10° NE 04:37:27 10° ENE visible
26 Feb 5.9 06:16:53 24° NNW 06:20:02 90° W 06:25:40 10° SSE visible
26 Feb 7.1 20:51:22 10° SW 20:55:24 35° WNW 20:59:24 10° N visible
27 Feb 6.5 05:44:06 50° NNE 05:45:02 58° ENE 05:50:32 10° SE visible
27 Feb 7.7 07:24:56 10° WNW 07:27:47 15° WSW 07:30:45 10° SW visible
27 Feb 6.1 20:15:59 10° SW 20:20:22 60° WNW 20:24:39 10° NNE visible
28 Feb 7.6 05:11:28 31° E 05:11:28 31° E 05:15:06 10° SE visible
28 Feb 7.1 06:52:01 22° W 06:52:54 23° WSW 06:57:17 10° SSW visible
29 Feb 8.8 04:38:58 11° ESE 04:38:58 11° ESE 04:39:19 10° ESE visible
29 Feb 7.0 06:19:30 31° SW 06:19:30 31° SW 06:23:08 10° S visible
29 Feb 8.4 20:51:22 10° W 20:53:40 14° NW 20:55:57 10° NNW visible
01 Mar 8.0 05:47:03 18° S 05:47:03 18° S 05:48:35 10° S visible
01 Mar 8.0 20:15:03 10° WSW 20:18:29 22° WNW 20:21:52 10° N visible
